Location: Newark
(13.0000°N, 105.0000°E)
Time: 01:53:55
(UTC+00:00)

Envisat - Visible Passes

Search period start: 19 October 2019 00:00
Search period end: 29 October 2019 00:00
Orbit: 764 x 766 km, 98.1° (Epoch: 18 October)

Date Brightness Start Highest point End Pass type
(mag) Time Alt. Az. Time Alt. Az. Time Alt. Az.
19 Oct 2.9 11:18:38 10° SSE 11:23:40 75° ENE 11:28:43 10° N visible
20 Oct 5.7 12:22:22 10° SW 12:25:52 19° W 12:29:23 10° NW visible
21 Oct 3.8 11:44:12 10° S 11:49:07 53° W 11:54:03 10° NNW visible
22 Oct 3.1 11:07:31 10° SSE 11:12:27 54° ENE 11:17:22 10° N visible
23 Oct 5.2 12:10:28 10° SSW 12:14:36 26° W 12:18:45 10° NW visible
24 Oct 3.2 11:32:50 10° S 11:37:52 72° WSW 11:42:55 10° NNW visible
25 Oct 3.4 10:56:31 10° SE 11:01:14 40° ENE 11:05:55 10° N visible
25 Oct 6.2 12:38:10 10° WSW 12:40:07 12° W 12:42:04 10° WNW visible
26 Oct 4.7 11:58:47 10° SSW 12:03:20 34° W 12:07:55 10° NW visible
27 Oct 2.9 11:21:34 10° SSE 11:26:38 84° ENE 11:31:42 10° N visible
28 Oct 5.8 12:25:39 10° SW 12:28:50 17° W 12:32:03 10° WNW visible
